Regional Weather Roundup
Issued by NWS Upton, NY

Current Version | Previous Version | Text Only | Print | Product List | Glossary On
Versions: 1 2 3 4 5 6 7 8 9 10 11 12 13 14 15 16 17 18 19 20 21 22 23 24 25 26 27 28 29 30 31 32 33 34 35 36 37 38 39 40 41 42 43 44 45 46 47 48 49 50
000 ASUS41 KOKX 271405 RWROKX REGIONAL WEATHER ROUNDUP NATIONAL WEATHER SERVICE NEW YORK NY 900 AM EST TUE JAN 27 2015 NOTE: "FAIR" INDICATES FEW OR NO CLOUDS BELOW 12,000 FEET WITH NO SIGNIFICANT WEATHER AND/OR OBSTRUCTIONS TO VISIBILITY. NYZ071-072-176-178-NJZ106-104-271500- NEW YORK CITY METRO AREA CITY SKY/WX TMP DP RH WIND PRES REMARKS CENTRAL PARK CLOUDY 23 15 71 MISG 29.71R HAZE LAGUARDIA APRT CLOUDY 23 15 71 N22G30 29.68R WCI 8 KENNEDY INTL LGT SNOW 22 16 78 N21G28 29.68R VSB 1 WCI 6 NEWARK/LIBERTY LGT SNOW 22 18 85 N22 29.72R VSB 1 WCI 6 BRNX BOT. GARD N/A N/A N/A N/A N12 29.70S TETERBORO LGT SNOW 21 16 79 N15 29.71R FOG WCI 8 $$ NYZ177-179-078>081-271500- LONG ISLAND NEW YORK CITY SKY/WX TMP DP RH WIND PRES REMARKS FARMINGDALE FOG 20 16 84 N17G26 29.63S VSB 1/2 WCI 5 ISLIP HVY SNOW 22 19 89 NW20G30 29.58S VSB 1/8 WCI 7 SHIRLEY HAZE 22 17 81 N32G43 29.59S VSB 1 WCI 3 WESTHAMPTON FOG 20 17 88 N20G30 29.57R VSB 1/2 WCI 4 MONTAUK POINT N/A 21 18 88 N22G31 29.50S WCI 5 $$ NYZ052-065-067-271500- HUDSON VALLEY CITY SKY/WX TMP DP RH WIND PRES REMARKS WHITE PLAINS LGT SNOW 18 12 77 NW26G35 29.64R VSB 3/4 WCI -1 NEWBURGH LGT SNOW 19 12 73 NE9 29.74R FOG WCI 9 MONTGOMERY CLOUDY 19 13 77 CALM 29.72S POUGHKEEPSIE SNOW 17 10 74 N17G28 29.77R VSB 1/2 WCI 1 ALBANY LGT SNOW 13 1 59 N10 29.84S WCI 0 $$ NJZ001-105-106-008-010-013-015-019>022-104-271500- NEW JERSEY CITY SKY/WX TMP DP RH WIND PRES REMARKS NEWARK/LIBERTY LGT SNOW 22 18 85 N22 29.72R VSB 1 WCI 6 TETERBORO LGT SNOW 21 16 79 N15 29.71R FOG WCI 8 CALDWELL LGT SNOW 23 17 78 CALM 29.72S MORRISTOWN LGT SNOW 25 18 74 N8G17 29.73R WCI 16 SOMERVILLE LGT SNOW 25 17 72 N8 29.73R WCI 16 SUSSEX LGT SNOW 21 10 62 VRB5 29.73R WCI 15 ANDOVER N/A 21 10 62 MISG 29.73R TRENTON LGT SNOW 24 20 84 NW9 29.73R FOG WCI 14 MILLVILLE LGT SNOW 28 23 81 NW10G22 29.72S WCI 19 ATLANTIC CITY LGT SNOW 25 21 85 NW18 29.69S FOG WCI 11 WRIGHTSTOWN LGT SNOW 25 22 88 NW13 29.70R FOG WCI 13 TOMS RIVER CLOUDY 25 18 74 N13G25 29.69S WCI 13 BELMAR CLOUDY 23 14 68 NW20G25 29.68R WCI 8 $$ PAZ047>061-062-071-271500- EASTERN PENNSYLVANIA CITY SKY/WX TMP DP RH WIND PRES REMARKS PHILADELPHIA LGT SNOW 27 22 81 N14 29.76R WCI 16 ALLENTOWN CLOUDY 23 13 65 NW12 29.76R WCI 12 SCRANTON CLOUDY 19 6 57 N12 29.78R WCI 7 $$ CTZ002-004>006-009-010-012-RIZ004-006-007-MAZ004-011-015-271500- SOUTHERN NEW ENGLAND IN CT CITY SKY/WX TMP DP RH WIND PRES REMARKS BRADLEY INTL SNOW 18 13 80 N17G33 29.61F VSB 1/2 WCI 3 HARTFORD SNOW 18 14 84 N18G28 29.62F VSB 1/4 WCI 2 DANBURY LGT SNOW 16 9 74 NW10G21 29.67S WCI 4 WTRBRY/OXFORD CLOUDY 19 10 68 N13G22 29.59S VSB 1/2 WCI 7 BRIDGEPORT LGT SNOW 20 17 88 NW15 29.62S VSB 3/4 WCI 6 MERIDEN HAZE 20 15 81 N15G26 29.61F VSB 1/4 WCI 6 NEW HAVEN SNOW 21 17 84 N18G33 29.57F VSB 1/2 WCI 6 CHESTER HVY SNOW 18 14 86 N21G30 29.53F VSB 1/4 WCI 1 GROTON FOG 18 16 92 MISG 29.51R VSB 1/4 WILLIMANTIC FOG 20 16 84 N14G32 29.55S VSB 1/4 WCI 7 IN RI CITY SKY/WX TMP DP RH WIND PRES REMARKS PROVIDENCE LGT SNOW 16 12 84 N26G43 29.48F VSB 3/4 WCI -3 BLOCK ISLAND N/A 21 16 79 N24G39 29.42R VSB 1/2 WCI 4 WESTERLY FOG 18 15 88 N14G28 29.50R VSB 1/4 WCI 4 IN MA CITY SKY/WX TMP DP RH WIND PRES REMARKS BOSTON HVY SNOW 15 13 91 N23G37 29.56F VSB 1/4 WCI -3 WORCESTER FOG 14 11 87 NE23G43 29.48F VSB<1/4 WCI -5 WESTFIELD HAZE 19 13 77 N17G28 29.63F VSB 3/4 WCI 4 PROVINCETOWN CLOUDY 27 25 93 N36G55 29.40S VSB 1/4 WCI 9 NANTUCKET HVY SNOW 32 29 88 NE53G69 29.19F VSB 1/4 WCI 14 $$ ANZ330-335-338-340-345-350-353-355-271500- COASTAL MARINE OBSERVATIONS STATION/POSITION TIME SKY/WX TEMP WIND PRES VSBY WAVE AIR SEA DIR/SP/G HT/PER (UTC) (F) (DEG/KT/KT) (MB) (MI) (FT/S) NY HARB ENTRANCE 1400 25 42 340/ 27/ 35 1003.3 13/11 4S FIRE IS 1400 38 N/A 10/11 20S FIRE ISLAND 1300 43 1001.7 15/11 23SW MTP 1400 N/A 15/11 HUDSON CANYON NOT AVBL EXECUTION ROCKS 1400 22 34 350/ 19/ 31 N/A WESTERN LI SOUND 1400 21 350/ 17/ 23 N/A 2/ 3 CENTRAL LI SOUND 1300 21 36 340/ 25/ 35 N/A 5/ 4 EASTERN LI SOUND NOT AVBL ROBBINS REEF 1400 22 340/ 18/ 24 1004.6 $$ >>>>>>>>>>>>>>>>>>>>>>>>>>>> KEY <<<<<<<<<<<<<<<<<<<<<<<<<<< > < > SKY/WX - SKY CONDITION/PRESENT WEATHER < > TMP - TEMPERATURE IN FAHRENHEIT < > DP - DEWPOINT IN FAHRENHEIT < > RH - RELATIVE HUMIDITY IN PERCENT < > WIND - DIRECTION AND SPEED IN MPH < > PRES - MEAN SEA LEVEL PRESSURE IN INCHES OF HG < > WCI - WIND CHILL INDEX < > VSB - VISIBILITY IN MILES < > HX - HEAT INDEX < > TC - TEMPERATURE IN CELSIUS < > VRB - VARIABLE WIND DIRECTION < > < >>>>>>>>>>>>>>>>>>>>>>>>>>>> KEY <<<<<<<<<<<<<<<<<<<<<<<<<<<

USA.gov is the U.S. government's official web portal to all federal, state and local government web resources and services.